#timestamp,LO_Frequency,Hit,StdDev 
1523397615.9,286047000.2,N
1523397635.7,286047000.0,N
1523397655.6,286047001.1,N
1523397675.4,286047001.2,N
1523397695.3,286047000.9,N
1523397715.1,286047000.9,N
1523397716.0,286047000.9,N
1523397735.8,286046999.7,N
1523397755.7,286047001.4,N
1523397775.5,286047001.5,N
1523397795.4,286047003.5,Y
1523397815.2,286047005.6,P
1523397835.0,286047005.6,N
1523397835.9,286047005.6,N
1523397855.8,286047005.7,N
1523397875.6,286047007.1,Y
1523397895.4,286047002.7,P
1523397915.3,286047000.2,N
1523397935.1,286046999.7,N
1523397955.9,286046998.4,N
1523397975.7,286046998.7,N
1523397995.5,286046999.5,N
1523398015.4,286046996.7,N
1523398035.2,286046997.9,N
1523398055.0,286046993.9,N
1523398055.9,286046993.9,N
1523398075.8,286046996.3,N
1523398095.6,286046996.3,N
1523398115.5,286046997.6,N
1523398135.3,286046997.2,N
1523398155.1,286046996.8,N
1523398175.9,286046995.4,N
1523398195.7,286046998.0,N
1523398215.6,286046997.4,N
1523398235.4,286046997.1,N
1523398255.2,286046997.1,N
1523398275.1,286046994.9,N
1523398276.0,286046994.9,N
1523398295.8,286046995.1,N
1523398315.7,286046995.7,N
1523398335.5,286046996.3,N
1523398355.3,286046997.5,N
1523398375.2,286046997.0,N
1523398395.0,286046996.8,N
1523398395.9,286046996.8,N
1523398415.7,286046997.0,N
1523398435.6,286046997.5,N
1523398455.4,286046995.0,Y
1523398475.3,286047001.2,P
1523398495.1,286047001.2,N
1523398515.8,286046998.5,N
1523398535.7,286046998.9,N
1523398555.5,286046998.4,N
1523398575.4,286046998.1,N
1523398595.2,286046999.4,N
1523398615.0,286046998.5,N
1523398615.9,286046998.5,N
1523398635.8,286046998.4,N
1523398655.6,286046998.2,N
1523398675.4,286047000.0,N
1523398695.3,286047000.4,N
1523398715.1,286047000.1,N
1523398735.9,286047000.0,N
1523398755.7,286047000.3,N
1523398775.5,286047000.4,N
1523398795.4,286047000.5,N
1523398815.2,286047002.5,N
1523398835.0,286047003.8,N
1523398835.9,286047003.8,N
1523398855.8,286047004.0,N
1523398875.6,286047000.7,N
1523398895.5,286047000.3,N
1523398915.3,286046998.4,N
1523398935.1,286046996.5,N
1523398955.9,286046999.5,N
1523398975.7,286046996.9,N
1523398995.5,286046999.1,N
1523399015.4,286046998.7,N
1523399035.2,286046999.4,N
1523399055.1,286046996.8,N
1523399056.0,286046996.8,N
1523399075.8,286046997.0,N
1523399095.6,286046999.5,N
1523399145.5,286046997.1,E
1523399155.4,286046996.5,N
1523399175.3,286047001.1,P
1523399195.5,286046999.7,N
1523399215.3,286047004.4,N
1523399235.1,286047004.1,N
1523399255.9,286047005.9,N
1523399275.7,286047003.5,N
1523399295.6,286047003.1,N
1523399315.4,286047005.9,N
1523399335.2,286047004.4,N
1523399355.1,286047003.6,N
1523399356.0,286047003.6,N
1523399375.8,286047005.1,N
1523399395.6,286047007.1,N
1523399415.5,286047005.8,N
1523399435.3,286047006.0,N
1523399455.2,286047005.1,N
1523399475.9,286047009.1,Y
1523399495.7,286047004.3,P
1523399515.6,286047002.1,P
1523399535.4,286047001.4,N
1523399555.2,286047004.4,Y
1523399575.1,286046997.4,P
1523399576.0,286046997.4,N
1523399595.8,286046998.4,N
1523399615.7,286046999.0,N
1523399635.5,286046997.8,N
1523399655.3,286046997.2,N
1523399675.2,286046996.5,N
1523399695.0,286046997.5,N
1523399695.9,286046997.5,N
1523399715.8,286046994.9,Y
1523399735.6,286046999.2,P
1523399755.4,286046996.9,P
1523399775.3,286046997.5,N
1523399795.1,286046997.9,N
1523399815.9,286046996.6,Y
1523399835.7,286047000.5,P
1523399855.5,286046998.2,N
1523399875.4,286046998.2,N
1523399895.2,286047000.4,N
1523399915.0,286047000.0,N
1523399916.0,286047000.0,N
1523399935.8,286047000.2,N
1523399955.6,286047000.4,N
1523399975.5,286047000.5,N
1523399995.3,286047000.1,N
1523400015.1,286046999.8,N
1523400035.9,286047000.5,N
1523400055.7,286047000.3,N
1523400075.6,286047002.7,N
1523400095.4,286046999.9,N
1523400115.2,286047000.1,N
1523400135.1,286047002.4,N
1523400136.0,286047002.4,N
1523400155.8,286047002.6,N
1523400175.6,286047000.0,N
1523400195.5,286047002.6,N
1523400215.3,286047000.4,N
1523400235.2,286046999.4,N
1523400255.9,286046999.4,N
1523400275.7,286046998.5,N
1523400295.6,286046998.7,N
1523400315.4,286046998.2,N
1523400335.2,286046998.7,N
1523400355.1,286047000.6,N
1523400356.0,286047000.6,N
1523400375.8,286047000.3,N
1523400395.7,286047000.3,N
1523400415.5,286047000.6,N
1523400435.3,286047001.0,N
1523400455.2,286046998.9,N
1523400475.0,286046998.5,N
1523400475.9,286046998.5,N
1523400495.8,286046998.9,N
1523400515.6,286046998.5,N
1523400535.4,286047001.0,N
1523400555.3,286046998.8,N
1523400575.1,286047000.3,N
1523400595.8,286047002.8,N
1523400615.7,286047000.7,N
1523400635.5,286047000.9,N
1523400655.4,286046999.3,N
1523400675.2,286047001.1,N
1523400695.0,286047000.1,N
1523400695.9,286047000.1,N
1523400715.8,286047000.6,N
1523400735.6,286047002.7,N
1523400755.4,286047002.6,N
1523400775.3,286047004.0,Y
1523400795.1,286047004.4,P
1523400815.9,286047003.8,N
1523400835.7,286047002.9,N
1523400855.5,286047003.0,N
1523400875.4,286047002.9,N
1523400895.2,286047005.5,Y
1523400915.1,286047001.1,P
1523400916.0,286047001.1,N
1523400935.8,286046998.5,N
1523400955.6,286046999.0,N
1523400975.5,286046999.5,N
1523400995.3,286046999.5,N
1523401015.1,286046999.3,N
1523401035.9,286047001.1,N
1523401055.7,286046999.5,N
1523401075.6,286046999.6,N
1523401095.4,286046999.1,N
1523401115.2,286046996.9,N
1523401135.1,286046999.5,N
1523401136.0,286046999.5,N
1523401155.8,286046997.2,N
1523401175.6,286047000.6,N
1523401195.5,286047000.6,N
